This is the latest recevied weather packets stored in our database for station/object SR5NLK-1. If no packets are shown the sender has not sent any weather packets the latest 10 day(s).
| Time | Temp. | Humidity | Pressure | Rain* | Wind** | Luminosity | Snow |
|---|---|---|---|---|---|---|---|
| 1777550712 | 15.56° C | 25% | 1034.3 hPa | 0 mm | - | - | - |
| 1777550412 | 16.67° C | 25% | 1037.4 hPa | 0 mm | - | - | - |
| 1777550112 | 16.11° C | 26% | 1034.3 hPa | 0 mm | - | - | - |
| 1777549812 | 15.56° C | 25% | 1037.5 hPa | 0 mm | - | - | - |
| 1777549691 | 15.56° C | 25% | 1015.4 hPa | 0 mm | - | - | - |
| 1777549512 | 15.56° C | 25% | 1040.6 hPa | 0 mm | - | - | - |
| 1777549212 | 17.22° C | 24% | 1028 hPa | 0 mm | - | - | - |
| 1777548912 | 17.22° C | 27% | 1034.3 hPa | 0 mm | - | - | - |
| 1777548612 | 15.56° C | 27% | 1037.5 hPa | 0 mm | - | - | - |
| 1777548312 | 14.44° C | 26% | 1046.9 hPa | 0 mm | - | - | - |
| 1777548012 | 14.44° C | 26% | 1028 hPa | 0 mm | - | - | - |
| 1777547711 | 13.89° C | 27% | 1037.5 hPa | 0 mm | - | - | - |
| 1777547412 | 13.89° C | 26% | 1037.5 hPa | 0 mm | - | - | - |
| 1777547112 | 13.33° C | 27% | 1031.2 hPa | 0 mm | - | - | - |
| 1777546812 | 12.78° C | 28% | 1028 hPa | 0 mm | - | - | - |
| 1777546512 | 12.78° C | 27% | 1028 hPa | 0 mm | - | - | - |
| 1777546212 | 12.78° C | 27% | 1024.9 hPa | 0 mm | - | - | - |
| 1777545913 | 12.78° C | 27% | 1012.2 hPa | 0 mm | - | - | - |
| 1777545731 | 12.78° C | 27% | 1031.2 hPa | 0 mm | - | - | - |
| 1777545612 | 13.33° C | 27% | 1043.8 hPa | 0 mm | - | - | - |
| 1777545312 | 13.89° C | 27% | 1028 hPa | 0 mm | - | - | - |
| 1777545012 | 15° C | 27% | 1040.6 hPa | 0 mm | - | - | - |
| 1777544712 | 15° C | 29% | 1024.8 hPa | 0 mm | - | - | - |
| 1777544412 | 14.44° C | 29% | 1040.6 hPa | 0 mm | - | - | - |
| 1777544112 | 13.89° C | 28% | 1028 hPa | 0 mm | - | - | - |
* Rain latest hour (hover to see other rain measurements)
** Current wind speed in m/s (hover to see current wind gust speed)